Volver al catálogo

IGS R-7

ActivoMilitarSSO
NORAD 55329·PAYLOAD·🇯🇵 Japan

Lanzado Jan 26, 2023 desde Tanegashima Space Center

Loading…

Próximos Pases (próximas 24 horas)

TLE

ObsoletoSource: Mike McCants

Época: Aug 26, 2026, 21:10 UTC

1 55329U 23012A   26238.88242450 0.00000000  00000-0  00000-0 0    09
2 55329  97.3646 316.2833 0002042  18.7175 341.2823 15.25980876    08

Sigue IGS R-7 en tiempo real con AllMySat

Download on the App Store